GW4758 Weather Reports


time (UTC)temp
F
wind
direction
speed
knots
gust
knots
rain 1hr
in
rain 24hr
in
rain mn
in
humidity
%
barometer
mb
20260510234554 79 141 0.9 3.5 0.00 0.00 0.00 38 1015.2
20260510233050 80 149 1.7 3.5 0.00 0.00 0.00 36 1015.1
20260510231555 80 150 2.6 5.2 0.00 0.00 0.00 35 1014.9
20260510230056 80 158 2.6 7.8 0.00 0.00 0.00 35 1014.8
20260510224553 81 189 2.6 7.8 0.00 0.00 0.00 33 1014.9
20260510223155 81 179 4.3 11.3 0.00 0.00 0.00 33 1014.7
20260510221552 81 189 3.5 9.6 0.00 0.00 0.00 32 1014.8
20260510220057 81 160 4.3 8.7 0.00 0.00 0.00 32 1014.7
20260510214554 82 136 2.6 9.6 0.00 0.00 0.00 30 1014.6
20260510213054 82 163 1.7 7.8 0.00 0.00 0.00 32 1014.6
20260510211551 82 225 2.6 7.0 0.00 0.00 0.00 32 1014.6
20260510210057 81 168 3.5 9.6 0.00 0.00 0.00 31 1014.7
20260510204552 81 154 3.5 8.7 0.00 0.00 0.00 32 1014.8
20260510203052 81 104 5.2 9.6 0.00 0.00 0.00 32 1014.7
20260510201551 81 156 6.1 11.3 0.00 0.00 0.00 31 1015.0
20260510200056 81 203 2.6 8.7 0.00 0.00 0.00 32 1015.1
20260510194558 81 0 0.9 8.7 0.00 0.00 0.00 31 1015.3
20260510193056 80 259 0.9 7.8 0.00 0.00 0.00 30 1015.5
20260510191556 80 266 5.2 9.6 0.00 0.00 0.00 31 1015.5
20260510190057 80 135 3.5 8.7 0.00 0.00 0.00 33 1015.6
20260510184553 80 63 4.3 8.7 0.00 0.00 0.00 30 1015.7
20260510183056 79 334 4.3 10.4 0.00 0.00 0.00 31 1015.7
20260510181555 80 93 0.9 7.8 0.00 0.00 0.00 34 1015.8
20260510180056 80 301 1.7 7.0 0.00 0.00 0.00 32 1016.0
20260510174556 79 147 1.7 7.0 0.00 0.00 0.00 30 1016.1
20260510173053 78 262 2.6 10.4 0.00 0.00 0.00 30 1016.3
20260510171604 79 219 2.6 7.8 0.00 0.00 0.00 32 1016.5
20260510170052 78 137 4.3 7.8 0.00 0.00 0.00 32 1016.6
20260510164552 79 148 1.7 4.3 0.00 0.00 0.00 33 1016.4
20260510163057 77 136 2.6 5.2 0.00 0.00 0.00 31 1016.6
20260510161558 76 111 4.3 7.0 0.00 0.00 0.00 35 1016.9
20260510160052 76 40 3.5 5.2 0.00 0.00 0.00 41 1016.8
20260510154602 76 327 3.5 7.0 0.00 0.00 0.00 42 1016.8
20260510153057 75 40 3.5 7.8 0.00 0.00 0.00 43 1016.9
20260510151555 74 51 3.5 9.6 0.00 0.00 0.00 45 1017.1
20260510150057 73 355 2.6 7.8 0.00 0.00 0.00 46 1017.1
20260510144610 72 45 3.5 6.1 0.00 0.00 0.00 45 1017.0
20260510143108 72 80 3.5 7.8 0.00 0.00 0.00 47 1017.0
20260510141603 72 96 0.0 3.5 0.00 0.00 0.00 51 1016.9
20260510140052 72 330 1.7 3.5 0.00 0.00 0.00 52 1017.0
20260510134612 69 323 0.9 4.3 0.00 0.00 0.00 63 1017.0
20260510133055 68 243 1.7 4.3 0.00 0.00 0.00 67 1016.9
20260510131556 67 229 0.9 1.7 0.00 0.00 0.00 70 1016.7
20260510130057 66 243 0.9 2.6 0.00 0.00 0.00 76 1016.6
20260510124602 64 239 0.0 2.6 0.00 0.00 0.00 79 1016.6
20260510123057 62 276 0.0 0.9 0.00 0.00 0.00 84 1016.5
20260510121553 60 0 0.0 1.7 0.00 0.00 0.00 87 1016.3
20260510120053 58 234 0.9 2.6 0.00 0.00 0.00 90 1016.0
20260510114554 57 0 0.0 0.0 0.00 0.00 0.00 91 1015.8
20260510113055 56 0 0.0 0.0 0.00 0.00 0.00 93 1015.5
20260510111604 55 0 0.0 0.0 0.00 0.00 0.00 95 1015.3
20260510110052 55 0 0.0 0.0 0.00 0.00 0.00 95 1015.2
20260510104612 53 0 0.0 0.0 0.00 0.00 0.00 96 1014.9
20260510103053 53 0 0.0 0.0 0.00 0.00 0.00 95 1014.6
20260510101553 53 0 0.0 0.0 0.00 0.00 0.00 93 1014.2
20260510100122 54 0 0.0 0.0 0.00 0.00 0.00 93 1014.1
20260510094552 56 0 0.0 0.0 0.00 0.00 0.00 92 1013.7
20260510093052 56 0 0.0 0.0 0.00 0.00 0.00 95 1013.6
20260510091550 55 0 0.0 0.0 0.00 0.00 0.00 95 1013.6
20260510090110 56 0 0.0 0.0 0.00 0.00 0.00 95 1013.5
20260510084553 56 0 0.0 0.0 0.00 0.00 0.00 95 1013.4
20260510083051 56 0 0.0 0.9 0.00 0.00 0.00 94 1013.3
20260510081606 57 247 0.9 1.7 0.00 0.00 0.00 95 1012.9
20260510080055 57 231 0.9 1.7 0.00 0.00 0.00 94 1013.0
20260510074559 58 0 0.0 0.0 0.00 0.00 0.00 93 1012.8
20260510073051 58 0 0.0 0.9 0.00 0.00 0.00 93 1012.7
20260510071552 58 0 0.0 0.0 0.00 0.00 0.00 93 1012.6
20260510070057 59 0 0.0 0.9 0.00 0.00 0.00 93 1012.6
20260510064552 59 276 0.0 1.7 0.00 0.00 0.00 94 1012.6
20260510063104 59 337 0.0 0.0 0.00 0.00 0.00 94 1012.6
20260510061551 59 0 0.0 0.0 0.00 0.00 0.00 93 1012.7
20260510060058 59 0 0.0 0.9 0.00 0.00 0.00 93 1012.7
20260510054557 60 0 0.0 0.0 0.00 0.00 0.00 93 1013.0
20260510053058 60 0 0.0 0.9 0.00 0.00 0.00 93 1012.8
20260510051656 60 157 1.7 2.6 0.00 0.00 0.00 92 1013.0
20260510050058 61 0 0.0 0.0 0.00 0.00 0.00 91 1013.1
20260510044557 61 0 0.0 0.0 0.00 0.00 0.00 91 1012.9
20260510043143 62 0 0.0 0.0 0.00 0.00 0.00 90 1013.0
20260510041556 62 0 0.0 2.6 0.00 0.00 0.00 89 1013.1
20260510040058 62 186 1.7 3.5 0.00 0.00 0.00 90 1013.2
20260510034555 63 0 0.0 0.0 0.00 0.00 0.00 87 1013.1
20260510033056 63 0 0.0 0.9 0.00 0.00 0.00 88 1013.0
20260510031624 63 0 0.0 0.9 0.00 0.00 0.00 87 1013.2
20260510030053 64 0 0.0 0.0 0.00 0.00 0.00 85 1013.1
20260510024551 64 0 0.0 0.9 0.00 0.00 0.00 85 1013.0
20260510023059 65 153 0.0 1.7 0.00 0.00 0.00 84 1013.0
20260510021558 65 172 0.0 2.6 0.00 0.00 0.00 83 1012.8
20260510020100 66 189 0.9 3.5 0.00 0.00 0.00 81 1012.6
20260510014553 67 184 1.7 4.3 0.00 0.00 0.00 80 1012.3
20260510013051 67 246 0.9 6.1 0.00 0.00 0.00 79 1012.2
20260510011607 68 201 0.9 6.1 0.00 0.00 0.00 78 1012.0
20260510010105 68 170 1.7 4.3 0.00 0.00 0.00 78 1011.8
20260510004547 68 277 2.6 4.3 0.00 0.00 0.00 78 1011.5
20260510003101 68 142 0.9 4.3 0.00 0.00 0.00 78 1011.0
20260510001551 68 150 2.6 4.3 0.00 0.00 0.00 77 1011.0
20260510000052 69 160 2.6 4.3 0.00 0.00 0.00 76 1010.9